This demonstration page uses our WeatherBlox Daily Observations layout. Learn more.

41.55636, -103.73856

Hourly Observations for November 23, 2015

Temp ( °F °C ) Dew Point ( °F °C ) Humidity (%) Winds ( mph kmh ) Pressure ( in mb ) Visibility ( mi km ) Precip ( " mm )
12:53 am 00:53 Clear 27 -2.8 21 -6.1 78 78 N 5 7 30.08 1019 10 16.0934 0 0
1:53 am 01:53 Clear 23 -5 19 -7.2 85 85 N 3 6 30.1 1019 10 16.0934 0 0
2:53 am 02:53 Clear 25 -3.9 20 -6.7 81 81 NNE 6 9 30.08 1019 10 16.0934 0 0
3:53 am 03:53 Clear 23 -5 19 -7.2 85 85 N 3 6 30.1 1019 10 16.0934 0 0
4:53 am 04:53 Clear 24 -4.4 19 -7.2 81 81 N 6 9 30.1 1019 10 16.0934 0 0
5:53 am 05:53 Clear 20 -6.7 17 -8.3 89 89 NNW 3 6 30.13 1020 10 16.0934 0 0
6:53 am 06:53 Clear 20 -6.7 16 -8.9 85 85 N 3 6 30.14 1021 10 16.0934 0 0
7:53 am 07:53 Sunny 26 -3.3 20 -6.7 78 78 Calm 30.13 1020 10 16.0934 0 0
8:53 am 08:53 Sunny 32 0 25 -3.9 75 75 WNW 3 6 30.13 1020 10 16.0934 0 0
9:53 am 09:53 Sunny 40 4.4 27 -2.8 60 60 Calm 30.11 1020 10 16.0934 0 0
10:53 am 10:53 Sunny 45 7.2 27 -2.8 49 49 S 3 6 30.06 1018 10 16.0934 0 0
11:53 am 11:53 Sunny 48 8.9 23 -5 37 37 Calm 30.02 1017 10 16.0934 0 0
12:53 pm 12:53 Sunny 54 12.2 22 -5.6 29 29 S 3 6 29.96 1015 10 16.0934 0 0
1:53 pm 13:53 Sunny 57 13.9 18 -7.8 22 22 ESE 3 6 29.94 1014 10 16.0934 0 0
2:53 pm 14:53 Sunny 55 12.8 27 -2.8 34 34 E 7 11 29.93 1014 10 16.0934 0 0
3:53 pm 15:53 Sunny 52 11.1 28 -2.2 40 40 NE 3 6 29.95 1014 10 16.0934 0 0
4:53 pm 16:53 Clear 40 4.4 24 -4.4 53 53 ENE 6 9 29.98 1015 10 16.0934 0 0
5:53 pm 17:53 Clear 33 0.6 23 -5 66 66 NNE 7 11 30.01 1016 10 16.0934 0 0
6:53 pm 18:53 Clear 34 1.1 24 -4.4 67 67 ESE 3 6 30 1016 10 16.0934 0 0
7:53 pm 19:53 Clear 33 0.6 21 -6.1 61 61 E 5 7 29.98 1015 10 16.0934 0 0
8:53 pm 20:53 Clear 32 0 23 -5 69 69 E 7 11 29.96 1015 10 16.0934 0 0
9:53 pm 21:53 Clear 30 -1.1 22 -5.6 72 72 Calm 29.93 1014 10 16.0934 0 0
10:53 pm 22:53 Clear 27 -2.8 21 -6.1 78 78 N 6 9 29.92 1013 10 16.0934 0 0
11:53 pm 23:53 Clear 27 -2.8 20 -6.7 75 75 Calm 29.89 1012 10 16.0934 0 0

Powered by AerisWeather